CT1OY Oeiras PT current weather conditions

sailwx.info

Wind from 333 at 1 knots

Air temperature 19.4° C
Dewpoint 16.1° C

Last reported at 2014-Jul-30 00:25 UTC.
Time now 2014-Jul-30 01:08 UTC

Location: N 38°44' W 009°17'.
View on Google Maps.

See reports from other nearby stations

  
Tides and Currents Weather Stations Pressure Air Temp Water Temp Dewpoint Dewpoint Depression Visibility Wind Speed Wind Dir Waves Ship Positions
date/time (UTC)wind fromknots sea level pressurealtimeterstation pressurevisibilityair tempwater tempwave heightnotes
2014-Jul-30 00:25 333 1 19.4
2014-Jul-30 00:05 319 0 19.4
2014-Jul-29 23:55 276 0 19.4
2014-Jul-29 23:45 285 1 19.4
2014-Jul-29 23:25 009 1 19.4
2014-Jul-29 23:05 312 0 gusting 10 20.0
2014-Jul-29 22:55 350 2 20.0
2014-Jul-29 22:05 267 20.6
2014-Jul-29 21:55 315 1 20.6
2014-Jul-29 21:35 326 0 20.6
2014-Jul-29 21:25 016 0 21.1
2014-Jul-29 21:05 047 21.1
2014-Jul-29 20:35 312 3 21.1
2014-Jul-29 20:25 355 21.1
2014-Jul-29 20:15 311 2 gusting 10 21.7
2014-Jul-29 20:05 295 3 21.7
2014-Jul-29 19:15 295 2 23.9
2014-Jul-29 18:45 317 6 24.4
2014-Jul-29 18:35 328 0 gusting 11 25.0
2014-Jul-29 18:15 012 2 25.6
2014-Jul-29 18:05 315 8 gusting 10 25.6
2014-Jul-29 17:55 289 11 gusting 12 26.1
2014-Jul-29 17:35 300 1 gusting 11 26.1
2014-Jul-29 17:15 285 5 gusting 11 26.7
2014-Jul-29 17:05 352 27.2
2014-Jul-29 16:55 307 3 gusting 12 27.2
2014-Jul-29 16:35 317 4 27.2
2014-Jul-29 16:25 278 6 gusting 13 26.7
2014-Jul-29 15:55 278 6 27.8
2014-Jul-29 15:25 313 27.8
2014-Jul-29 15:15 241 3 27.8
2014-Jul-29 15:05 333 1 28.9
2014-Jul-29 14:25 105 28.9
2014-Jul-29 13:25 296 28.9
2014-Jul-29 12:55 121 0 27.8
2014-Jul-29 12:45 260 28.3
2014-Jul-29 12:25 097 27.2
2014-Jul-29 12:15 105 26.7
2014-Jul-29 11:45 098 1 27.2
2014-Jul-29 11:25 046 3 27.8
2014-Jul-29 10:15 099 25.6
2014-Jul-29 10:05 293 25.0
2014-Jul-29 09:55 008 24.4
2014-Jul-29 09:25 037 1 22.8
2014-Jul-29 09:15 280 22.2
2014-Jul-29 09:05 315 0 21.7
2014-Jul-29 08:45 262 0 gusting 11 20.6
2014-Jul-29 08:35 278 20.0
2014-Jul-29 08:25 348 6 gusting 13 20.0
2014-Jul-29 08:15 019 8 20.0
2014-Jul-29 08:05 029 0 19.4
2014-Jul-29 07:45 301 1 gusting 12 18.9
2014-Jul-29 07:35 317 2 18.9
2014-Jul-29 07:05 360 0 17.8
2014-Jul-29 06:55 342 0 17.8
2014-Jul-29 06:45 003 0 17.8
2014-Jul-29 06:35 298 5 gusting 10 17.8
2014-Jul-29 06:25 316 7 gusting 11 17.8
2014-Jul-29 06:15 340 3 17.8
2014-Jul-29 06:05 269 2 gusting 12 17.8
2014-Jul-29 05:45 291 3 17.2
2014-Jul-29 05:35 304 4 17.2
2014-Jul-29 05:25 068 3 gusting 15 17.8
2014-Jul-29 05:05 011 6 gusting 11 17.8
2014-Jul-29 04:45 314 6 gusting 12 17.8
2014-Jul-29 04:35 342 6 gusting 11 17.8
2014-Jul-29 04:15 283 2 gusting 14 17.8
2014-Jul-29 03:55 297 1 18.3
2014-Jul-29 03:45 293 4 gusting 10 18.3
2014-Jul-29 03:25 314 2 18.3
2014-Jul-29 03:15 011 1 gusting 12 18.3
2014-Jul-29 03:05 267 3 gusting 11 18.3
2014-Jul-29 02:55 298 1 gusting 11 18.3
2014-Jul-29 02:45 278 6 18.3
2014-Jul-29 02:25 312 0 gusting 10 18.9
2014-Jul-29 02:15 338 4 18.9
2014-Jul-29 01:55 322 1 18.9
2014-Jul-29 01:35 281 6 18.9
2014-Jul-29 01:15 271 4 gusting 11 18.9
2014-Jul-29 01:05 052 2 gusting 11 18.9
2014-Jul-29 00:45 322 2 18.9
2014-Jul-29 00:35 302 1 18.9
2014-Jul-29 00:15 046 3 18.9
2014-Jul-28 23:15 332 2 18.9
2014-Jul-28 22:45 299 1 gusting 11 18.9
2014-Jul-28 22:25 332 1 18.9
2014-Jul-28 21:35 271 5 gusting 11 18.9
2014-Jul-28 21:05 267 1 gusting 12 18.9
2014-Jul-28 20:55 293 4 gusting 14 18.9
2014-Jul-28 20:45 347 2 gusting 13 18.9
2014-Jul-28 20:25 290 3 gusting 13 19.4
2014-Jul-28 19:45 329 10 gusting 11 20.0
2014-Jul-28 19:15 013 0 21.7
2014-Jul-28 19:05 304 0 gusting 13 21.7
2014-Jul-28 18:55 252 3 gusting 15 21.7
2014-Jul-28 18:45 271 4 gusting 12 22.2
2014-Jul-28 18:25 003 6 gusting 13 22.8
2014-Jul-28 18:15 290 6 gusting 13 23.3
2014-Jul-28 18:05 280 3 gusting 12 23.9
2014-Jul-28 17:35 287 24.4
2014-Jul-28 17:25 290 2 gusting 12 24.4
2014-Jul-28 17:15 323 3 24.4
2014-Jul-28 16:35 013 1 gusting 10 23.9
2014-Jul-28 16:15 259 5 25.0
2014-Jul-28 16:05 256 2 26.1
2014-Jul-28 15:55 288 3 26.7
2014-Jul-28 15:45 280 26.7
2014-Jul-28 15:15 359 2 26.7
2014-Jul-28 15:05 358 0 26.7
2014-Jul-28 14:55 029 1 26.1
2014-Jul-28 14:45 342 2 26.1
2014-Jul-28 14:35 287 4 25.6
2014-Jul-28 14:25 298 1 25.6
2014-Jul-28 13:55 264 6 26.1
2014-Jul-28 13:45 333 2 26.1
2014-Jul-28 13:35 284 26.1
2014-Jul-28 13:25 027 1 26.1
2014-Jul-28 13:15 301 2 26.1
2014-Jul-28 13:05 023 0 26.1
2014-Jul-28 12:55 275 2 25.6
2014-Jul-28 12:45 288 4 25.6
2014-Jul-28 12:15 183 0 24.4
2014-Jul-28 11:55 253 2 24.4
2014-Jul-28 11:45 142 0 24.4
2014-Jul-28 11:35 186 1 24.4
2014-Jul-28 11:05 149 1 24.4
2014-Jul-28 10:55 141 1 24.4
2014-Jul-28 10:45 124 23.9
2014-Jul-28 10:35 043 24.4
2014-Jul-28 10:25 084 0 24.4
2014-Jul-28 10:15 236 23.9
2014-Jul-28 09:45 025 0 22.2
2014-Jul-28 09:25 023 21.1
2014-Jul-28 09:15 016 0 21.1
2014-Jul-28 09:05 023 4 20.6
2014-Jul-28 08:45 016 20.0
2014-Jul-28 08:05 009 2 18.9
2014-Jul-28 07:55 342 18.3
2014-Jul-28 07:45 317 0 18.3
2014-Jul-28 07:25 294 6 17.8
2014-Jul-28 07:15 295 1 17.8
2014-Jul-28 07:05 329 0 17.2
2014-Jul-28 06:55 018 0 16.7
2014-Jul-28 06:45 316 16.7
2014-Jul-28 06:35 288 0 16.7
2014-Jul-28 06:25 333 2 16.7
2014-Jul-28 06:15 312 16.7
2014-Jul-28 06:05 288 1 16.7
2014-Jul-28 05:55 032 5 16.1
2014-Jul-28 05:05 061 16.1
2014-Jul-28 04:55 342 0 16.1
2014-Jul-28 04:45 318 0 16.1
2014-Jul-28 04:35 323 16.1
2014-Jul-28 04:05 281 0 16.1
2014-Jul-28 03:55 259 0 16.7
2014-Jul-28 03:35 197 16.7
2014-Jul-28 03:25 232 0 16.7
2014-Jul-28 03:15 276 0 16.7
2014-Jul-28 03:05 262 16.7
2014-Jul-28 02:55 297 0 16.7
2014-Jul-28 02:45 281 16.7
2014-Jul-28 02:15 311 3 16.7
2014-Jul-28 02:05 312 3 16.7
2014-Jul-28 01:55 290 0 16.7
2014-Jul-28 01:45 032 1 16.7
2014-Jul-28 01:25 285 2 17.2